Regional Weather Roundup
Issued by NWS Binghamton, NY

Home | Current Version | Previous Version | Text Only | Print | Product List | Glossary On
Versions: 1 2 3 4 5 6 7 8 9 10 11 12 13 14 15 16 17 18 19 20 21 22 23 24 25 26 27
000
ASUS41 KBGM 250810
RWRBGM
RWRBGM
BINGHAMTON REGIONAL WEATHER ROUNDUP
NATIONAL WEATHER SERVICE BINGHAMTON NY
400 AM EDT FRI APR 25 2014

Note: "fair" indicates few or no clouds below 12,000 feet with no
significant weather and/or obstructions to visibility.

* = Station(s) that does not report precipitation, such as rain,
snow, etc, also no thunder or fog.

!NYZ009-015>018-022>025-036-037-044>046-055>057-062-250900
...CENTRAL NEW YORK...

CITY           SKY/WX    TMP DP  RH WIND       PRES   REMARKS
BINGHAMTON     CLEAR     36  17  46 CALM      29.98S
CORTLAND       FAIR      32  27  80 CALM      30.02S
DANSVILLE      CLOUDY    39  25  57 E7        29.99S WCI  34
ELMIRA         MOCLDY    33  23  66 W3        30.01S
ITHACA         PTCLDY    32  24  72 E5        30.02R WCI  27
HAMILTON       SUNNY     28  25  86 CALM      30.01
HORNELL        PTSUNNY   34  25  69 SE5       30.01S WCI  30
MONTICELLO     CLEAR     32  18  55 CALM      30.00S
NORWICH        CLEAR     27  21  80 CALM      30.02S
ONEONTA        CLEAR     28  19  69 CALM      29.98S
PENN YAN       MOCLDY    37  27  67 CALM      29.99F
ROME           CLEAR     28  21  75 CALM      30.03F
SIDNEY         CLEAR     28  27  93 CALM      30.02S
SYRACUSE       PTCLDY    34  24  67 SE3       30.02S
$$

!PAZ038>040-043-044-047-048-072-250900
...NORTHEAST PENNSYLVANIA...

CITY           SKY/WX    TMP DP  RH WIND       PRES   REMARKS
SCRANTON       CLEAR     32  19  58 S8        30.01S WCI  25
TOWANDA*       MOSUNNY   34  23  64 CALM      30.04S
$$
&&
KEY
WCI = WIND CHILL INDEX
VSB = VISIBILITY
HX  = HEAT INDEX
$$



USA.gov is the U.S. government's official web portal to all federal, state and local government web resources and services.